Location: Unspecified
(0.0000°N, 0.0000°E)
Time: 20:54:43
(UTC+00:00)

Courier 1B Rocket - Pass Details

Date: 28 October 2021
Orbit: 920 x 1202 km, 28.2° (Epoch: 06 December)

Event Time Altitude Azimuth Distance (km) Brightness Sun altitude
Rises 19:57:45 0° 315° (NW) 3,549 8.3 -32.5°
Reaches altitude 10° 20:00:34 10° 323° (NW) 2,599 7.4 -33.1°
Enters shadow 20:02:12 18° 332° (NNW) 2,095 6.8 -33.5°
